DMSP 5D-2 F13 DEB, 40434

Orbit data source: Space-Track

DMSP 5D-2 F13 DEB, 40434 is space debris in SSO originally from a launch on Fri, 24 Mar 1995 UTC launched from the Air Force Western Test Range (AFWTR). Debris objects in space refer to the collection of defunct objects orbiting the Earth. Examples of debris include non-operational satellites, rocket bodies, and fragments generated from explosions, collisions, or faulty payload assembly.

Loading next visibility...
Identifier
40434, 1995-015AL
Orbit
SSO
Country
Flag of USUS
Related business
Manufacturer
Unknown
Mission
Spacecraft
Bus & Motor
Unknown
Mass
Unknown
Launch date (UTC)
1995-03-24 (30 years ago)
Launch vehicle
Unknown
Launch site
Air Force Western Test Range (AFWTR)
Object type
Payload
Rocket body
Debris
Shape & HBR
Unknown
Radar Cross Section
Small (<0.1 m²)

Expand to show TLE details & history
Last TLE update: 1 day ago

TLE from 1 day ago
0 DMSP 5D-2 F13 DEB
1 40434U 95015AL  25241.73844556  .00003107  00000-0  14701-2 0  9997
2 40434  99.0896 220.2681 0173227 319.2739  39.5586 14.12869152538185
Epoch: 2025-08-29T17:43Z
TLE epoch observation values (Epoch: 2025-08-29T17:43:21.696Z)
Latitude
-0.00007°
Longitude
-23.75507°
Altitude
756.814 km
Speed
7.525 km/s
True Right ascension
14h 41m 04s
True Declination
0° 00' 00"
Sunlit
Object was in daylight at epoch
Visualization orbit readout
Latitude
Unknown
Longitude
Unknown
Altitude
Unknown
Speed
Unknown
Apparent Right ascension
Unknown
Apparent Declination
Unknown
Sunlit
N/A
Visualization observer readout
Local Sidereal Time
16:41:33
Azimuth
Unknown
Elevation
Unknown
Doppler factor
Unknown
Orbital elements
Apogee altitude
971.91 km
Perigee altitude
721.601 km
Semi-major axis
7,224.893 km
Eccentricity
0.01732
Inclination
99.0896°
RAAN
220.2681°
Arg. of periapsis
319.2739°
True anomaly
40.84414°
Mean anomaly
39.5586°
Eccentric anomaly
40.19922°
Mean motion
3.53424 °/min
Orbital period
101.86 mins
BSTAR
0.0014701
Loading maneuver chart data...
Computing Atmospheric mass density...

Documentation

Showing up to 5 results
|